Location: Caltech
(34.1382°N, 118.1253°W)
Time: 17:53:26
(UTC-08:00)

Gbstr 26 Del rocket - Visible Passes

Search period start: 03 December 2016 00:00
Search period end: 13 December 2016 00:00
Orbit: 493 x 1266 km, 51.8° (Epoch: 03 December)

Date Brightness Start Highest point End Pass type
(mag) Time Alt. Az. Time Alt. Az. Time Alt. Az.
03 Dec 3.6 04:54:56 36° NNW 04:56:23 50° NE 05:00:22 10° ESE visible
04 Dec 3.2 04:51:19 52° NNW 04:52:14 67° NE 04:56:17 10° SE visible
04 Dec 6.4 19:39:38 10° S 19:41:10 15° S 19:41:10 15° S visible
05 Dec 2.9 04:47:45 79° NW 04:48:02 89° ENE 04:52:07 10° SE visible
05 Dec 5.9 19:34:47 10° SSW 19:37:54 23° S 19:37:54 23° S visible
06 Dec 3.2 04:44:15 61° S 04:44:15 61° S 04:47:51 10° SE visible
06 Dec 5.5 19:30:05 10° SSW 19:34:38 33° S 19:34:38 33° S visible
07 Dec 4.0 04:40:49 36° S 04:40:49 36° S 04:43:29 10° SSE visible
07 Dec 6.2 17:44:39 10° SE 17:46:47 11° ESE 17:48:43 10° ESE visible
07 Dec 5.0 19:25:30 10° SSW 19:31:21 45° S 19:31:21 45° S visible
07 Dec 6.9 21:13:35 10° WSW 21:13:57 11° WSW 21:13:57 11° WSW visible
08 Dec 4.8 04:37:24 21° S 04:37:24 21° S 04:38:59 10° SSE visible
08 Dec 6.0 17:38:07 10° SSE 17:42:20 15° ESE 17:45:23 12° E visible
08 Dec 4.6 19:21:02 10° SSW 19:28:00 62° S 19:28:00 62° S visible
08 Dec 6.8 21:09:41 10° W 21:10:37 13° W 21:10:37 13° W visible
09 Dec 5.5 04:34:02 12° S 04:34:02 12° S 04:34:21 10° S visible
09 Dec 5.8 17:32:29 10° SSE 17:37:54 20° ESE 17:42:00 13° E visible
09 Dec 4.3 19:16:39 10° SW 19:24:36 81° SSE 19:24:36 81° SSE visible
09 Dec 6.7 21:05:51 10° W 21:07:13 15° W 21:07:13 15° W visible
10 Dec 5.6 17:27:15 10° S 17:33:30 25° ESE 17:38:33 13° ENE visible
10 Dec 4.3 19:12:22 10° SW 19:20:33 85° NW 19:21:09 78° NNE visible
10 Dec 6.7 21:02:03 10° W 21:03:46 16° WNW 21:03:46 16° WNW visible
11 Dec 5.4 17:22:15 10° S 17:29:06 31° SE 17:35:01 13° ENE visible
11 Dec 4.5 19:08:10 10° SW 19:16:19 73° NW 19:17:37 61° NNE visible
11 Dec 6.6 20:58:19 10° W 21:00:13 16° WNW 21:00:13 16° WNW visible
12 Dec 5.2 17:17:25 10° S 17:24:43 38° SE 17:31:25 12° ENE visible
12 Dec 4.7 19:04:02 10° WSW 19:12:06 62° NW 19:14:01 49° NNE visible
12 Dec 6.6 20:54:36 10° WNW 20:56:37 16° WNW 20:56:37 16° WNW visible
